Barking Sands, HI

12:30 PM HST on December 18, 2017 (GMT -1000)
Barking Sands PMRF

Weather History for PHBK - September, 2014

Change the Weather History Date:

Tuesday, September 23, 2014

  Actual Average Record
Temperature  
Mean Temperature 80 °F -  
Max Temperature 86 °F 88 °F 91 °F (1971)
Min Temperature 75 °F 67 °F 62 °F (1951)
Cooling Degree Days 16    
Growing Degree Days 30 (Base 50)    
Moisture  
Dew Point 70 °F    
Average Humidity 69    
Maximum Humidity 79    
Minimum Humidity 61    
Precipitation  
Precipitation 0.00 in - - ()
Sea Level Pressure  
Sea Level Pressure 30.03 in    
Wind  
Wind Speed 4 mph (SE)    
Max Wind Speed 10 mph    
Max Gust Speed -    
Visibility 10 miles    
Events      
Averages and records for this station are not official NWS values.
T = Trace of Precipitation, MM = Missing Value Source: NWS Daily Summary

Daily Weather History Graph

Daily Weather History Graph

Search for Another Location

Airport or City:

Trip Planner

Search our weather history database for the weather conditions in past years. The results will help you decide how hot, cold, wet, or windy it might be!

Date:

Astronomy

Sep. 23, 2014 Rise Set
Actual Time 6:28 AM HST 6:34 PM HST
Civil Twilight 6:05 AM HST 6:56 PM HST
Nautical Twilight 5:39 AM HST 7:22 PM HST
Astronomical Twilight 5:13 AM HST 7:48 PM HST
Moon 6:03 AM HST (9/23) 6:22 PM HST (9/23)
Length of Visible Light 12h 50m
Length of Day
12h 05m
Waning Crescent, 0% of the Moon is Illuminated
Sep 23
Waning Crescent
Sep 23
New
Oct 1
First Quarter
Oct 8
Full
Oct 15
Last Quarter

Hourly Weather History & Observations

Time (HST) Temp. Heat Index Dew Point Humidity Pressure Visibility Wind Dir Wind Speed Gust Speed Precip Events Conditions
12:56 AM 77.0 °F - 66.9 °F 71% 30.05 in 10.0 mi East 3.5 mph - N/A   Clear
1:56 AM 75.9 °F - 68.0 °F 76% 30.04 in 10.0 mi Calm Calm - N/A   Clear
2:56 AM 75.9 °F - 68.0 °F 76% 30.02 in 10.0 mi East 4.6 mph - N/A   Clear
3:56 AM 75.0 °F - 66.9 °F 76% 30.01 in 10.0 mi East 4.6 mph - N/A   Clear
4:56 AM 75.9 °F - 66.9 °F 74% 30.01 in 10.0 mi East 5.8 mph - N/A   Clear
5:56 AM 75.9 °F - 66.9 °F 74% 30.03 in 10.0 mi East 5.8 mph - N/A   Clear
6:56 AM 77.0 °F - 68.0 °F 74% 30.03 in 10.0 mi East 4.6 mph - N/A   Clear
7:56 AM 82.9 °F 87.0 °F 70.0 °F 65% 30.04 in 10.0 mi East 3.5 mph - N/A   Clear
8:56 AM 82.9 °F 87.5 °F 71.1 °F 67% 30.06 in 10.0 mi West 4.6 mph - N/A   Clear
9:56 AM 84.9 °F 90.7 °F 72.0 °F 65% 30.07 in - WSW 6.9 mph - N/A   Clear
10:56 AM 86.0 °F 91.5 °F 71.1 °F 61% 30.06 in - West 5.8 mph - N/A   Overcast
11:56 AM 86.0 °F 92.2 °F 72.0 °F 63% 30.05 in 10.0 mi North - - N/A   Partly Cloudy
12:56 PM 84.0 °F 89.6 °F 72.0 °F 67% 30.04 in 10.0 mi North - - N/A   Overcast
1:56 PM 84.9 °F 90.7 °F 72.0 °F 65% 30.02 in 10.0 mi SW 6.9 mph - N/A   Overcast
2:56 PM 86.0 °F 92.2 °F 72.0 °F 63% 30.00 in 10.0 mi West 9.2 mph - N/A   Mostly Cloudy
3:56 PM 86.0 °F 92.2 °F 72.0 °F 63% 29.99 in 10.0 mi West 4.6 mph - N/A   Partly Cloudy
4:56 PM 86.0 °F 92.2 °F 72.0 °F 63% 29.99 in 10.0 mi SW 5.8 mph - N/A   Mostly Cloudy
5:56 PM 84.9 °F 90.7 °F 72.0 °F 65% 30.00 in 10.0 mi SW 8.1 mph - N/A   Clear
6:56 PM 84.0 °F 89.6 °F 72.0 °F 67% 30.01 in 10.0 mi West 10.4 mph - N/A   Clear
7:56 PM 84.0 °F 89.0 °F 71.1 °F 65% 30.02 in 10.0 mi Calm Calm - N/A   Clear
8:56 PM 80.1 °F 83.6 °F 71.1 °F 74% 30.04 in 10.0 mi Calm Calm - N/A   Clear
9:56 PM 80.1 °F 83.6 °F 71.1 °F 74% 30.06 in 10.0 mi East 4.6 mph - N/A   Partly Cloudy
10:56 PM 79.0 °F - 70.0 °F 74% 30.05 in 10.0 mi ESE 3.5 mph - N/A   Clear
11:56 PM 77.0 °F - 70.0 °F 79% 30.05 in 10.0 mi East 3.5 mph - N/A   Clear